Regional Weather Roundup
Issued by NWS Charleston, SC

Current Version | Previous Version | Text Only | Print | Product List | Glossary Off
Versions: 1 2 3 4 5 6 7 8 9 10 11 12 13 14 15 16 17 18 19 20 21 22 23 24 25 26 27 28 29 30 31 32 33 34 35 36 37 38 39 40 41 42 43 44 45 46 47 48 49 50
000 ASUS42 KCHS 041912 RWRCHS REGIONAL WEATHER ROUNDUP NATIONAL WEATHER SERVICE CHARLESTON SC 300 PM EDT SAT JUL 04 2015 NOTE: "FAIR" INDICATES FEW OR NO CLOUDS BELOW 12,000 FEET WITH NO SIGNIFICANT WEATHER AND/OR OBSTRUCTIONS TO VISIBILITY. NOT ALL STATIONS ARE QUALITY CONTROLLED BY THE NATIONAL WEATHER SERVICE. USE DATA WITH CAUTION...ESPECIALLY DEWPOINT OBSERVATIONS. SCZ027-030-031-034>040-042>050-042000- ...SOUTHEAST SOUTH CAROLINA... CITY SKY/WX TMP DP RH WIND PRES REMARKS N CHARLESTON PTSUNNY 88 70 55 W7 30.07F HX 93 WATERFRONT PAR N/A 88 74 63 W6 30.05F HX 97 MOUNT PLEASANT FAIR 91 70 49 W12 30.07S HX 97 JOHNS ISLAND FAIR 88 75 66 SW7 30.07S HX 97 PINOPOLIS NOT AVBL MONCKS CORNER FAIR 90 68 48 SW8 30.06F HX 93 SUMMERVILLE FAIR 88 72 58 W8 30.08F HX 94 BEAUFORT MCAS MOSUNNY 88 71 57 NW7 30.07F HX 94 BEAUFORT ARPT FAIR 90 72 55 W10 30.06F HX 96 HILTON HEAD IS MOSUNNY 88 79 74 SE6 30.08F HX 102 WALTERBORO MOCLDY 86 68 54 W10 30.08F ALLENDALE FAIR 88 72 58 NW6 30.05F HX 94 ...SOUTHERN MIDLANDS AND PEE DEE... CITY SKY/WX TMP DP RH WIND PRES REMARKS GEORGETOWN NOT AVBL KINGSTREE NOT AVBL ORANGEBURG PTSUNNY 87 69 54 SW13 30.06F HX 91 BARNWELL MOCLDY 88 72 58 W7 30.07F HX 94 AIKEN NOT AVBL MANNING FAIR 86 63 45 W6 30.06F COLUMBIA CLOUDY 86 68 54 SW9 30.04F SUMTER CLOUDY 86 68 55 W13 30.04F FLORENCE CLOUDY 86 68 54 W16 30.04F MYRTLE BEACH MOSUNNY 91 66 43 W12G21 30.07S HX 94 N MYRTLE BEACH MOSUNNY 90 66 45 W10G18 30.04F HX 92 $$ GAZ063-065-086>088-099>101-113>116-118-119-134>141-150-042000- ...SOUTHEAST GEORGIA... CITY SKY/WX TMP DP RH WIND PRES REMARKS SAVANNAH ARPT PTSUNNY 91 69 48 W6 30.06F HX 96 HUNTER AAF MOSUNNY 92 72 50 W8 30.04F HX 100 FORT STEWART PTSUNNY 90 71 52 SW9 30.04F HX 96 STATESBORO NOT AVBL SYLVANIA PTCLDY 91 73 56 W7 30.07F HX 99 CLAXTON FAIR 90 73 58 W5 30.05F HX 98 ...CSRA...CENTRAL AND FAR SOUTHEAST GEORGIA... CITY SKY/WX TMP DP RH WIND PRES REMARKS THOMSON MOSUNNY 88 73 60 SW8 30.09F HX 94 AUGUSTA-BUSH MOSUNNY 86 69 56 W5 30.04F HX 90 AUGUSTA-DANIEL MOSUNNY 86 69 56 SW7 30.06F HX 90 SWAINSBORO HVY RAIN 79 73 83 W5G24 30.08R VIDALIA MOSUNNY 88 72 58 S9G16 30.06F HX 94 EASTMAN CLOUDY 75 72 91 NW22G31 30.16R VSB 3/4 HAZLEHURST LGT RAIN 77 72 84 S3G16 30.07F ALMA MOSUNNY 90 71 53 VRB7 30.06F HX 96 WAYCROSS SUNNY 94 73 50 W7 30.07S HX 103 JESUP MOCLDY 91 72 52 W7 30.07S HX 98 BAXLEY FAIR 91 72 52 CALM 30.06F HX 98 BRUNSWICK MOSUNNY 91 72 52 SW5 30.08S HX 98 SAINT SIMONS SUNNY 86 76 71 SE15 30.08F HX 96 $$ SCZ027-028-034-036>038-045-046-048>050-GAZ119-141-042000- ...LAKE AND SUPPLEMENTAL COASTAL OBSERVATIONS... STATION/POSITION TIME TEMP WIND PRES WAVE SWELL AIR SEA DIR/SP/G HT/PER HT/PER/DIR (UTC) (F) (DEG/KT/KT) (MB) (FT/S) (FT/S/D) UPR LAKE MARION NOT AVBL WINYAH BAY 1745 88 250/ 10 1017.0 LAKE MURRAY 1800 80 270/ 15/ 21 1017.3F ACE BASIN NERRS NOT AVBL FORT PULASKI 1800 89 84 200/ 6/ 9 1019.0F SAPELO ISLAND 1800 89 270/ 6 1019.0F $$ ANZ835-935-AMZ111-154-330-350-352-354-370-450-454-472-042000- ...C-MAN AND BUOY OBSERVATIONS... STATION/POSITION TIME TEMP WIND PRES WAVE SWELL AIR SEA DIR/SP/G HT/PER HT/PER/DIR (UTC) (F) (DEG/KT/KT) (MB) (FT/S) (FT/S/D) BUOY 41004 1850 81 82 220/ 12/ 14 1018.3F 4/ 9 3/ 9 BUOY 41008 1850 79 80 170/ 10/ 12 1018.9F 2/10 2/140/10 FOLLY BEACH CMAN 1800 83 210/ 14/ 17 1018.8F CAPERS NEARSHORE 1808 82 220/ 14/ 17 1018.9F FRIPP NEARSHORE 1800 83 220/ 10/ 12 1018.9F STATION/POSITION TIME TEMP WIND PRES WAVE SWELL AIR SEA DIR/SP/G HT/PER HT/PER/DIR (UTC) (F) (DEG/KT/KT) (MB) (FT/S) (FT/S/D) 5E ST. MARYS GA 1821 78 N/A 2/10 FRYING PAN BUOY 1850 81 79 220/ 12/ 14 1018.6F 5/ 6 3/200/ 6 BUOY 41025 1850 81 82 230/ 23/ 27 1015.5R 7/ 7 2/150/14 CAPE LOOKOUT NC 1800 83 230/ 15/ 21 1016.4F BUOY 41002 1850 82 80 240/ 10/ 12 1021.4F 5/ 6 5/250/ 6 BUOY 41010 1820 84 85 180/ 6/ 8 1021.2F ST AUGUSTINE FL 1900 80 77 320/ 18/ 22 1021.6R $$

USA.gov is the U.S. government's official web portal to all federal, state and local government web resources and services.